Flag for U.S.A. Weather past 2 weeks in Houston, Texas, U.S.A.

Now
71 °F

Overcast.


Feels Like: 67 °F
Forecast: 70 / 83 °F
Wind: 8 mph from South

Location: Houston Hobby Airport

Current Time: Apr 2, 2015 at 3:51:46 AM

Latest Report: Apr 2, 2015 at 2:53 AM


Visibility: 8 mi

Pressure: 29.96 "Hg

Humidity: 93%

Dew point: 69 °F

Location of HoustonLocation

Historic Weather in Houston — Graph

°F

Houston temperature yesterday

Maximum temperature yesterday: 78 °F (at 11:53 AM)
Minimum temperature yesterday: 66 °F (at 3:53 AM)
Average temperature yesterday: 72 °F

Past Weeks' High & Low Weather Summary

 TemperatureHumidityPressure
High83 °F (Mar 31, 3:53 PM)100% (Mar 18, 3:00 AM)30.23 "Hg (Mar 18, 3:00 AM)
Low48 °F (Mar 27, 5:53 AM)20% (Mar 27, 3:53 PM)29.86 "Hg (Mar 26, 4:53 AM)
Average68 °F78%30.05 "Hg
* Reported Mar 18 3:00 AM — Apr 2 2:53 AM, Houston, Weather by CustomWeather, © 2015

Note: Actual official high and low records may vary slightly from our data, if they occured in-between our weather recording intervals... More about our weather records

Advertising

Houston weather history for previous 24 hours

 ConditionsComfort  
Time TempWeatherWind HumidityBarometerVisibility
2:53 AM
Thu, Apr 2
71 °FOvercast.8 mph93%29.96 "Hg8 mi
1:53 AM70 °FPassing clouds.8 mph97%29.96 "Hg10 mi
12:52 AM69 °FPartly cloudy.5 mph96%29.98 "Hg10 mi
11:53 PM
Wed, Apr 1
69 °FPassing clouds.10 mph96%29.98 "Hg10 mi
10:53 PM69 °FPassing clouds.6 mph93%29.99 "Hg10 mi
9:53 PM70 °FPassing clouds.5 mph90%29.99 "Hg10 mi
8:53 PM71 °FPartly cloudy.8 mph87%29.97 "Hg10 mi
7:53 PM73 °FBroken clouds.9 mph81%29.96 "Hg10 mi
6:53 PM74 °FBroken clouds.7 mph79%29.93 "Hg10 mi
5:53 PM76 °FBroken clouds.15 mph74%29.92 "Hg10 mi
4:53 PM77 °FBroken clouds.15 mph71%29.92 "Hg10 mi
3:53 PM78 °FBroken clouds.14 mph71%29.94 "Hg10 mi
2:53 PM78 °FMore clouds than sun.14 mph71%29.96 "Hg10 mi
1:53 PM77 °FMore clouds than sun.12 mph71%29.99 "Hg10 mi
12:53 PM77 °FMore clouds than sun.12 mph74%30.01 "Hg10 mi
11:53 AM78 °FMore clouds than sun.13 mph71%30.03 "Hg10 mi
10:53 AM76 °FMore clouds than sun.8 mph80%30.04 "Hg10 mi
9:53 AM72 °FPartly sunny.7 mph91%30.03 "Hg10 mi
8:53 AM71 °FMostly cloudy.5 mph93%30.02 "Hg9 mi
7:53 AM69 °FFog.3 mph96%30.00 "Hg6 mi
6:53 AM68 °FPassing clouds.No wind96%29.98 "Hg9 mi
5:53 AM68 °FMostly cloudy.6 mph100%29.96 "Hg8 mi
4:53 AM67 °FPassing clouds.6 mph97%29.97 "Hg8 mi
3:53 AM66 °FPassing clouds.5 mph96%29.97 "Hg9 mi
Weather by CustomWeather, © 2015

See weather overviewHow to use our weather pages